EW6394 Weather Reports


time (UTC)temp
F
wind
direction
speed
knots
gust
knots
rain 1hr
in
rain 24hr
in
rain mn
in
humidity
%
barometer
mb
20260503211534 60 296 2.6 13.0 0.00 0.00 0.00 61 1013.4
20260503210022 60 284 0.9 7.8 0.00 0.00 0.00 62 1013.4
20260503204521 60 306 2.6 13.0 0.00 0.00 0.00 61 1013.5
20260503203022 60 290 3.5 14.8 0.00 0.00 0.00 63 1013.6
20260503201519 60 281 1.7 11.3 0.00 0.00 0.00 63 1013.6
20260503200018 59 300 4.3 9.6 0.00 0.00 0.00 64 1013.6
20260503194517 59 175 0.0 7.8 0.00 0.00 0.00 64 1014.0
20260503193031 60 161 0.9 7.0 0.00 0.00 0.00 63 1014.0
20260503191514 59 259 0.9 4.3 0.00 0.00 0.00 65 1013.9
20260503190020 58 285 0.0 10.4 0.00 0.00 0.00 67 1014.0
20260503184506 57 325 0.0 7.8 0.00 0.00 0.00 71 1014.1
20260503183004 56 294 0.9 5.2 0.00 0.00 0.00 72 1014.3
20260503181501 55 308 0.0 2.6 0.00 0.00 0.00 75 1014.3
20260503180101 55 332 0.0 7.0 0.00 0.00 0.00 78 1014.3
20260503174607 54 334 0.0 4.3 0.00 0.00 0.00 81 1014.3
20260503173055 53 256 0.0 3.5 0.00 0.00 0.00 82 1014.3
20260503171549 53 258 0.0 6.1 0.00 0.00 0.00 84 1014.3
20260503081607 50 297 0.0 1.7 0.00 0.00 0.00 88 1012.6
20260503071555 50 299 0.0 0.0 0.00 0.00 0.00 90 1012.2
20260503054551 50 309 0.0 0.0 0.00 0.00 0.00 92 1011.9
20260503053050 50 309 0.0 5.2 0.00 0.00 0.00 92 1011.7
20260503051550 50 241 0.0 5.2 0.00 0.00 0.00 92 1011.7
20260503050049 50 209 0.0 4.3 0.00 0.00 0.00 93 1011.4
20260503044553 50 194 2.6 12.2 0.00 0.00 0.00 92 1010.9
20260503043050 50 118 0.9 9.6 0.00 0.00 0.00 92 1010.9
20260503041548 50 354 2.6 9.6 0.00 0.00 0.00 92 1011.0
20260503040047 50 273 1.7 7.8 0.00 0.00 0.00 92 1010.7
20260503034600 50 193 0.9 9.6 0.00 0.00 0.00 91 1010.8
20260503033054 51 233 2.6 7.8 0.00 0.00 0.00 90 1010.9
20260503031551 51 240 0.9 7.0 0.00 0.00 0.00 89 1010.9
20260503030047 52 221 0.0 4.3 0.00 0.00 0.00 88 1010.8
20260503024549 52 232 0.0 5.2 0.00 0.00 0.00 88 1010.7
20260503023044 52 184 0.9 7.0 0.00 0.00 0.00 86 1010.7
20260503021544 54 169 1.7 5.2 0.00 0.00 0.00 84 1010.7
20260503020044 55 159 1.7 6.1 0.00 0.00 0.00 81 1010.6
20260503014545 56 215 0.0 9.6 0.00 0.00 0.00 81 1010.5
20260503013042 57 153 4.3 16.5 0.00 0.00 0.00 78 1010.3
20260503011546 57 3 0.0 6.1 0.00 0.00 0.00 79 1010.2
20260503010042 58 286 1.7 8.7 0.00 0.00 0.00 76 1010.3
20260503004541 59 279 0.9 9.6 0.00 0.00 0.00 76 1010.0
20260503003049 60 287 1.7 9.6 0.00 0.00 0.00 74 1010.2
20260503001558 61 290 0.0 10.4 0.00 0.00 0.00 72 1010.4
20260503000045 62 184 0.9 7.8 0.00 0.00 0.00 70 1010.4
20260502234543 62 168 0.0 2.6 0.00 0.00 0.00 71 1010.3
20260502233034 62 202 0.0 6.1 0.00 0.00 0.00 70 1010.5
20260502231533 62 148 1.7 11.3 0.00 0.00 0.00 70 1010.7
20260502230034 63 217 2.6 13.0 0.00 0.00 0.00 70 1011.1
20260502224528 62 231 2.6 12.2 0.00 0.00 0.00 72 1011.4
20260502223026 62 202 3.5 10.4 0.00 0.00 0.00 72 1011.7
20260502221526 63 233 1.7 7.8 0.00 0.00 0.00 71 1011.8
20260502220027 62 291 0.0 8.7 0.00 0.00 0.00 72 1012.0
20260502214518 61 151 1.7 13.0 0.00 0.00 0.00 73 1012.4
20260502213021 61 239 1.7 14.8 0.00 0.00 0.00 74 1012.6